Вернуться в каталог

NOAA 17 DEB

АктивенPO
NORAD 48713·DEBRIS·🇺🇸 United States

Запущен Jun 24, 2002 с Vandenberg Space Force Base

Loading…

Ближайшие Пролёты (ближайшие 24 часа)

TLE

СвежийSource: Space-Track

Эпоха: Sep 14, 2026, 09:21 UTC

1 48713U 02032AW  26257.39011350  .00060904  00000-0  25947-2 0  9992
2 48713  98.9816  53.3822 0024321 356.6453   3.4612 15.22461508293580

Отслеживайте NOAA 17 DEB в реальном времени с AllMySat

Download on the App Store